Year,Month,Day,Hour,Minute,Value (Times are PST for temperature in C)
2014,10,19,00,00,15.70
2014,10,19,00,01,15.70
2014,10,19,00,02,15.70
2014,10,19,00,03,15.70
2014,10,19,00,04,15.70
2014,10,19,00,05,15.70
2014,10,19,00,06,15.70
2014,10,19,00,07,15.80
2014,10,19,00,08,15.80
2014,10,19,00,09,15.80
2014,10,19,00,10,15.80
2014,10,19,00,11,15.80
2014,10,19,00,12,15.80
2014,10,19,00,13,15.80
2014,10,19,00,14,15.80
2014,10,19,00,15,15.70
2014,10,19,00,16,15.70
2014,10,19,00,17,15.70
2014,10,19,00,18,15.70
2014,10,19,00,19,15.70
2014,10,19,00,20,15.70
2014,10,19,00,21,15.60
2014,10,19,00,22,15.60
2014,10,19,00,23,15.60
2014,10,19,00,24,15.60
2014,10,19,00,25,15.60
2014,10,19,00,26,15.60
2014,10,19,00,27,15.60
2014,10,19,00,28,15.60
2014,10,19,00,29,15.60
2014,10,19,00,30,15.60
2014,10,19,00,31,15.60
2014,10,19,00,32,15.60
2014,10,19,00,33,15.60
2014,10,19,00,34,15.60
2014,10,19,00,35,15.60
2014,10,19,00,36,15.70
2014,10,19,00,37,15.70
2014,10,19,00,38,15.70
2014,10,19,00,39,15.70
2014,10,19,00,40,15.80
2014,10,19,00,41,15.80
2014,10,19,00,42,15.80
2014,10,19,00,43,15.90
2014,10,19,00,44,16.00
2014,10,19,00,45,16.00
2014,10,19,00,46,16.10
2014,10,19,00,47,16.10
2014,10,19,00,48,16.20
2014,10,19,00,49,16.20
2014,10,19,00,50,16.30
2014,10,19,00,51,16.30
2014,10,19,00,52,16.30
2014,10,19,00,53,16.30
2014,10,19,00,54,16.30
2014,10,19,00,55,16.30
2014,10,19,00,56,16.30
2014,10,19,00,57,16.30
2014,10,19,00,58,16.30
2014,10,19,00,59,16.30
2014,10,19,01,00,16.30
2014,10,19,01,01,16.30
2014,10,19,01,02,16.30
2014,10,19,01,03,16.30
2014,10,19,01,04,16.30
2014,10,19,01,05,16.30
2014,10,19,01,06,16.30
2014,10,19,01,07,16.30
2014,10,19,01,08,16.30
2014,10,19,01,09,16.30
2014,10,19,01,10,16.40
2014,10,19,01,11,16.40
2014,10,19,01,12,16.40
2014,10,19,01,13,16.30
2014,10,19,01,14,16.40
2014,10,19,01,15,16.40
2014,10,19,01,16,16.40
2014,10,19,01,17,16.40
2014,10,19,01,18,16.40
2014,10,19,01,19,16.40
2014,10,19,01,20,16.40
2014,10,19,01,21,16.50
2014,10,19,01,22,16.50
2014,10,19,01,23,16.50
2014,10,19,01,24,16.50
2014,10,19,01,25,16.50
2014,10,19,01,26,16.50
2014,10,19,01,27,16.60
2014,10,19,01,28,16.60
2014,10,19,01,29,16.60
2014,10,19,01,30,16.60
2014,10,19,01,31,16.60
2014,10,19,01,32,16.60
2014,10,19,01,33,16.70
2014,10,19,01,34,16.70
2014,10,19,01,35,16.70
2014,10,19,01,36,16.80
2014,10,19,01,37,16.80
2014,10,19,01,38,16.80
2014,10,19,01,39,16.80
2014,10,19,01,40,16.80
2014,10,19,01,41,16.90
2014,10,19,01,42,16.90
2014,10,19,01,43,16.90
2014,10,19,01,44,16.90
2014,10,19,01,45,17.00
2014,10,19,01,46,17.00
2014,10,19,01,47,17.10
2014,10,19,01,48,17.10
2014,10,19,01,49,17.10
2014,10,19,01,50,17.10
2014,10,19,01,51,17.10
2014,10,19,01,52,17.10
2014,10,19,01,53,17.10
2014,10,19,01,54,17.10
2014,10,19,01,55,17.10
2014,10,19,01,56,17.10
2014,10,19,01,57,17.10
2014,10,19,01,58,17.10
2014,10,19,01,59,17.10
2014,10,19,02,00,17.20
2014,10,19,02,01,17.20
2014,10,19,02,02,17.20
2014,10,19,02,03,17.20
2014,10,19,02,04,17.30
2014,10,19,02,05,17.30
2014,10,19,02,06,17.30
2014,10,19,02,07,17.30
2014,10,19,02,08,17.30
2014,10,19,02,09,17.30
2014,10,19,02,10,17.30
2014,10,19,02,11,17.30
2014,10,19,02,12,17.30
2014,10,19,02,13,17.30
2014,10,19,02,14,17.30
2014,10,19,02,15,17.30
2014,10,19,02,16,17.20
2014,10,19,02,17,17.20
2014,10,19,02,18,17.20
2014,10,19,02,19,17.20
2014,10,19,02,20,17.30
2014,10,19,02,21,17.30
2014,10,19,02,22,17.30
2014,10,19,02,23,17.30
2014,10,19,02,24,17.30
2014,10,19,02,25,17.30
2014,10,19,02,26,17.30
2014,10,19,02,27,17.30
2014,10,19,02,28,17.30
2014,10,19,02,29,17.30
2014,10,19,02,30,17.30
2014,10,19,02,31,17.30
2014,10,19,02,32,17.30
2014,10,19,02,33,17.40
2014,10,19,02,34,17.40
2014,10,19,02,35,17.40
2014,10,19,02,36,17.40
2014,10,19,02,37,17.40
2014,10,19,02,38,17.40
2014,10,19,02,39,17.50
2014,10,19,02,40,17.50
2014,10,19,02,41,17.60
2014,10,19,02,42,17.60
2014,10,19,02,43,17.60
2014,10,19,02,44,17.60
2014,10,19,02,45,17.60
2014,10,19,02,46,17.60
2014,10,19,02,47,17.60
2014,10,19,02,48,17.60
2014,10,19,02,49,17.60
2014,10,19,02,50,17.70
2014,10,19,02,51,17.70
2014,10,19,02,52,17.60
2014,10,19,02,53,17.60
2014,10,19,02,54,17.60
2014,10,19,02,55,17.60
2014,10,19,02,56,17.60
2014,10,19,02,57,17.60
2014,10,19,02,58,17.60
2014,10,19,02,59,17.60
2014,10,19,03,00,17.50
2014,10,19,03,01,17.50
2014,10,19,03,02,17.50
2014,10,19,03,03,17.40
2014,10,19,03,04,17.40
2014,10,19,03,05,17.40
2014,10,19,03,06,17.40
2014,10,19,03,07,17.30
2014,10,19,03,08,17.30
2014,10,19,03,09,17.30
2014,10,19,03,10,17.30
2014,10,19,03,11,17.30
2014,10,19,03,12,17.30
2014,10,19,03,13,17.30
2014,10,19,03,14,17.30
2014,10,19,03,15,17.20
2014,10,19,03,16,17.20
2014,10,19,03,17,17.20
2014,10,19,03,18,17.30
2014,10,19,03,19,17.30
2014,10,19,03,20,17.30
2014,10,19,03,21,17.30
2014,10,19,03,22,17.30
2014,10,19,03,23,17.30
2014,10,19,03,24,17.30
2014,10,19,03,25,17.30
2014,10,19,03,26,17.30
2014,10,19,03,27,17.30
2014,10,19,03,28,17.40
2014,10,19,03,29,17.40
2014,10,19,03,30,17.40
2014,10,19,03,31,17.40
2014,10,19,03,32,17.40
2014,10,19,03,33,17.30
2014,10,19,03,34,17.30
2014,10,19,03,35,17.30
2014,10,19,03,36,17.30
2014,10,19,03,37,17.30
2014,10,19,03,38,17.30
2014,10,19,03,39,17.30
2014,10,19,03,40,17.30
2014,10,19,03,41,17.30
2014,10,19,03,42,17.40
2014,10,19,03,43,17.40
2014,10,19,03,44,17.40
2014,10,19,03,45,17.40
2014,10,19,03,46,17.40
2014,10,19,03,47,17.50
2014,10,19,03,48,17.50
2014,10,19,03,49,17.50
2014,10,19,03,50,17.50
2014,10,19,03,51,17.50
2014,10,19,03,52,17.50
2014,10,19,03,53,17.50
2014,10,19,03,54,17.60
2014,10,19,03,55,17.60
2014,10,19,03,56,17.60
2014,10,19,03,57,17.70
2014,10,19,03,58,17.70
2014,10,19,03,59,17.70
2014,10,19,04,00,17.70
2014,10,19,04,01,17.70
2014,10,19,04,02,17.70
2014,10,19,04,03,17.70
2014,10,19,04,04,17.70
2014,10,19,04,05,17.70
2014,10,19,04,06,17.70
2014,10,19,04,07,17.60
2014,10,19,04,08,17.60
2014,10,19,04,09,17.60
2014,10,19,04,10,17.60
2014,10,19,04,11,17.60
2014,10,19,04,12,17.70
2014,10,19,04,13,17.70
2014,10,19,04,14,17.70
2014,10,19,04,15,17.60
2014,10,19,04,16,17.60
2014,10,19,04,17,17.60
2014,10,19,04,18,17.60
2014,10,19,04,19,17.60
2014,10,19,04,20,17.60
2014,10,19,04,21,17.50
2014,10,19,04,22,17.50
2014,10,19,04,23,17.50
2014,10,19,04,24,17.40
2014,10,19,04,25,17.40
2014,10,19,04,26,17.40
2014,10,19,04,27,17.40
2014,10,19,04,28,17.40
2014,10,19,04,29,17.40
2014,10,19,04,30,17.40
2014,10,19,04,31,17.40
2014,10,19,04,32,17.40
2014,10,19,04,33,17.40
2014,10,19,04,34,17.40
2014,10,19,04,35,17.40
2014,10,19,04,36,17.40
2014,10,19,04,37,17.40
2014,10,19,04,38,17.40
2014,10,19,04,39,17.50
2014,10,19,04,40,17.50
2014,10,19,04,41,17.50
2014,10,19,04,42,17.50
2014,10,19,04,43,17.50
2014,10,19,04,44,17.50
2014,10,19,04,45,17.50
2014,10,19,04,46,17.50
2014,10,19,04,47,17.50
2014,10,19,04,48,17.50
2014,10,19,04,49,17.50
2014,10,19,04,50,17.50
2014,10,19,04,51,17.50
2014,10,19,04,52,17.40
2014,10,19,04,53,17.40
2014,10,19,04,54,17.40
2014,10,19,04,55,17.30
2014,10,19,04,56,17.30
2014,10,19,04,57,17.30
2014,10,19,04,58,17.30
2014,10,19,04,59,17.20
2014,10,19,05,00,17.20
2014,10,19,05,01,17.20
2014,10,19,05,02,17.20
2014,10,19,05,03,17.20
2014,10,19,05,04,17.20
2014,10,19,05,05,17.20
2014,10,19,05,06,17.20
2014,10,19,05,07,17.20
2014,10,19,05,08,17.30
2014,10,19,05,09,17.30
2014,10,19,05,10,17.30
2014,10,19,05,11,17.30
2014,10,19,05,12,17.30
2014,10,19,05,13,17.30
2014,10,19,05,14,17.30
2014,10,19,05,15,17.30
2014,10,19,05,16,17.20
2014,10,19,05,17,17.20
2014,10,19,05,18,17.10
2014,10,19,05,19,17.10
2014,10,19,05,20,17.10
2014,10,19,05,21,17.10
2014,10,19,05,22,17.20
2014,10,19,05,23,17.20
2014,10,19,05,24,17.20
2014,10,19,05,25,17.20
2014,10,19,05,26,17.20
2014,10,19,05,27,17.30
2014,10,19,05,28,17.30
2014,10,19,05,29,17.30
2014,10,19,05,30,17.30
2014,10,19,05,31,17.30
2014,10,19,05,32,17.30
2014,10,19,05,33,17.30
2014,10,19,05,34,17.30
2014,10,19,05,35,17.30
2014,10,19,05,36,17.30
2014,10,19,05,37,17.30
2014,10,19,05,38,17.30
2014,10,19,05,39,17.30
2014,10,19,05,40,17.30
2014,10,19,05,41,17.30
2014,10,19,05,42,17.30
2014,10,19,05,43,17.30
2014,10,19,05,44,17.30
2014,10,19,05,45,17.30
2014,10,19,05,46,17.30
2014,10,19,05,47,17.30
2014,10,19,05,48,17.30
2014,10,19,05,49,17.30
2014,10,19,05,50,17.30
2014,10,19,05,51,17.30
2014,10,19,05,52,17.30
2014,10,19,05,53,17.30
2014,10,19,05,54,17.40
2014,10,19,05,55,17.40
2014,10,19,05,56,17.40
2014,10,19,05,57,17.40
2014,10,19,05,58,17.40
2014,10,19,05,59,17.50
2014,10,19,06,00,17.50
2014,10,19,06,01,17.60
2014,10,19,06,02,17.60
2014,10,19,06,03,17.60
2014,10,19,06,04,17.60
2014,10,19,06,05,17.60
2014,10,19,06,06,17.70
2014,10,19,06,07,17.70
2014,10,19,06,08,17.70
2014,10,19,06,09,17.70
2014,10,19,06,10,17.70
2014,10,19,06,11,17.70
2014,10,19,06,12,17.80
2014,10,19,06,13,17.80
2014,10,19,06,14,17.80
2014,10,19,06,15,17.80
2014,10,19,06,16,17.90
2014,10,19,06,17,17.90
2014,10,19,06,18,17.90
2014,10,19,06,19,17.90
2014,10,19,06,20,17.90
2014,10,19,06,21,17.80
2014,10,19,06,22,17.80
2014,10,19,06,23,17.90
2014,10,19,06,24,17.90
2014,10,19,06,25,17.90
2014,10,19,06,26,17.90
2014,10,19,06,27,18.00
2014,10,19,06,28,18.00
2014,10,19,06,29,18.00
2014,10,19,06,30,18.00
2014,10,19,06,31,18.00
2014,10,19,06,32,18.00
2014,10,19,06,33,17.90
2014,10,19,06,34,17.80
2014,10,19,06,35,17.80
2014,10,19,06,36,17.70
2014,10,19,06,37,17.60
2014,10,19,06,38,17.50
2014,10,19,06,39,17.50
2014,10,19,06,40,17.40
2014,10,19,06,41,17.40
2014,10,19,06,42,17.40
2014,10,19,06,43,17.40
2014,10,19,06,44,17.40
2014,10,19,06,45,17.40
2014,10,19,06,46,17.40
2014,10,19,06,47,17.40
2014,10,19,06,48,17.40
2014,10,19,06,49,17.40
2014,10,19,06,50,17.40
2014,10,19,06,51,17.50
2014,10,19,06,52,17.50
2014,10,19,06,53,17.60
2014,10,19,06,54,17.60
2014,10,19,06,55,17.60
2014,10,19,06,56,17.60
2014,10,19,06,57,17.70
2014,10,19,06,58,17.70
2014,10,19,06,59,17.70
2014,10,19,07,00,17.80
2014,10,19,07,01,17.80
2014,10,19,07,02,17.90
2014,10,19,07,03,18.00
2014,10,19,07,04,18.00
2014,10,19,07,05,18.10
2014,10,19,07,06,18.10
2014,10,19,07,07,18.20
2014,10,19,07,08,18.20
2014,10,19,07,09,18.20
2014,10,19,07,10,18.30
2014,10,19,07,11,18.30
2014,10,19,07,12,18.30
2014,10,19,07,13,18.30
2014,10,19,07,14,18.40
2014,10,19,07,15,18.40
2014,10,19,07,16,18.40
2014,10,19,07,17,18.40
2014,10,19,07,18,18.30
2014,10,19,07,19,18.30
2014,10,19,07,20,18.30
2014,10,19,07,21,18.30
2014,10,19,07,22,18.30
2014,10,19,07,23,18.40
2014,10,19,07,24,18.40
2014,10,19,07,25,18.40
2014,10,19,07,26,18.40
2014,10,19,07,27,18.40
2014,10,19,07,28,18.40
2014,10,19,07,29,18.40
2014,10,19,07,30,18.30
2014,10,19,07,31,18.30
2014,10,19,07,32,18.30
2014,10,19,07,33,18.30
2014,10,19,07,34,18.30
2014,10,19,07,35,18.30
2014,10,19,07,36,18.30
2014,10,19,07,37,18.20
2014,10,19,07,38,18.20
2014,10,19,07,39,18.20
2014,10,19,07,40,18.20
2014,10,19,07,41,18.20
2014,10,19,07,42,18.20
2014,10,19,07,43,18.20
2014,10,19,07,44,18.20
2014,10,19,07,45,18.20
2014,10,19,07,46,18.20
2014,10,19,07,47,18.20
2014,10,19,07,48,18.20
2014,10,19,07,49,18.20
2014,10,19,07,50,18.20
2014,10,19,07,51,18.20
2014,10,19,07,52,18.20
2014,10,19,07,53,18.20
2014,10,19,07,54,18.20
2014,10,19,07,55,18.20
2014,10,19,07,56,18.20
2014,10,19,07,57,18.20
2014,10,19,07,58,18.10
2014,10,19,07,59,18.10
2014,10,19,08,00,18.10
2014,10,19,08,01,18.10
2014,10,19,08,02,18.10
2014,10,19,08,03,18.10
2014,10,19,08,04,18.10
2014,10,19,08,05,18.10
2014,10,19,08,06,18.00
2014,10,19,08,07,18.00
2014,10,19,08,08,18.00
2014,10,19,08,09,18.00
2014,10,19,08,10,18.00
2014,10,19,08,11,18.00
2014,10,19,08,12,18.00
2014,10,19,08,13,18.00
2014,10,19,08,14,18.00
2014,10,19,08,15,18.00
2014,10,19,08,16,18.00
2014,10,19,08,17,18.00
2014,10,19,08,18,18.00
2014,10,19,08,19,18.00
2014,10,19,08,20,18.00
2014,10,19,08,21,18.00
2014,10,19,08,22,17.90
2014,10,19,08,23,18.00
2014,10,19,08,24,18.00
2014,10,19,08,25,18.00
2014,10,19,08,26,18.00
2014,10,19,08,27,18.00
2014,10,19,08,28,17.90
2014,10,19,08,29,17.90
2014,10,19,08,30,17.90
2014,10,19,08,31,17.90
2014,10,19,08,32,17.80
2014,10,19,08,33,17.80
2014,10,19,08,34,17.70
2014,10,19,08,35,17.60
2014,10,19,08,36,17.50
2014,10,19,08,37,17.40
2014,10,19,08,38,17.30
2014,10,19,08,39,17.20
2014,10,19,08,40,17.10
2014,10,19,08,41,17.00
2014,10,19,08,42,17.00
2014,10,19,08,43,17.00
2014,10,19,08,44,16.90
2014,10,19,08,45,16.90
2014,10,19,08,46,16.90
2014,10,19,08,47,16.90
2014,10,19,08,48,16.90
2014,10,19,08,49,16.90
2014,10,19,08,50,16.90
2014,10,19,08,51,16.90
2014,10,19,08,52,16.90
2014,10,19,08,53,16.90
2014,10,19,08,54,16.90
2014,10,19,08,55,16.90
2014,10,19,08,56,16.80
2014,10,19,08,57,16.80
2014,10,19,08,58,16.80
2014,10,19,08,59,16.70
2014,10,19,09,00,16.70
2014,10,19,09,01,16.60
2014,10,19,09,02,16.60
2014,10,19,09,03,16.50
2014,10,19,09,04,16.40
2014,10,19,09,05,16.40
2014,10,19,09,06,16.30
2014,10,19,09,07,16.30
2014,10,19,09,08,16.20
2014,10,19,09,09,16.20
2014,10,19,09,10,16.20
2014,10,19,09,11,16.10
2014,10,19,09,12,16.10
2014,10,19,09,13,16.00
2014,10,19,09,14,16.00
2014,10,19,09,15,15.90
2014,10,19,09,16,15.90
2014,10,19,09,17,15.90
2014,10,19,09,18,15.90
2014,10,19,09,19,15.90
2014,10,19,09,20,15.90
2014,10,19,09,21,15.90
2014,10,19,09,22,15.90
2014,10,19,09,23,16.00
2014,10,19,09,24,16.00
2014,10,19,09,25,16.00
2014,10,19,09,26,16.10
2014,10,19,09,27,16.20
2014,10,19,09,28,16.20
2014,10,19,09,29,16.20
2014,10,19,09,30,16.30
2014,10,19,09,31,16.30
2014,10,19,09,32,16.30
2014,10,19,09,33,16.30
2014,10,19,09,34,16.40
2014,10,19,09,35,16.40
2014,10,19,09,36,16.40
2014,10,19,09,37,16.40
2014,10,19,09,38,16.40
2014,10,19,09,39,16.50
2014,10,19,09,40,16.50
2014,10,19,09,41,16.50
2014,10,19,09,42,16.60
2014,10,19,09,43,16.60
2014,10,19,09,44,16.60
2014,10,19,09,45,16.60
2014,10,19,09,46,16.60
2014,10,19,09,47,16.60
2014,10,19,09,48,16.60
2014,10,19,09,49,16.60
2014,10,19,09,50,16.60
2014,10,19,09,51,16.60
2014,10,19,09,52,16.60
2014,10,19,09,53,16.60
2014,10,19,09,54,16.60
2014,10,19,09,55,16.60
2014,10,19,09,56,16.50
2014,10,19,09,57,16.50
2014,10,19,09,58,16.50
2014,10,19,09,59,16.50
2014,10,19,10,00,16.50
2014,10,19,10,01,16.50
2014,10,19,10,02,16.50
2014,10,19,10,03,16.50
2014,10,19,10,04,16.50
2014,10,19,10,05,16.50
2014,10,19,10,06,16.50
2014,10,19,10,07,16.50
2014,10,19,10,08,16.40
2014,10,19,10,09,16.40
2014,10,19,10,10,16.40
2014,10,19,10,11,16.40
2014,10,19,10,12,16.40
2014,10,19,10,13,16.40
2014,10,19,10,14,16.30
2014,10,19,10,15,16.30
2014,10,19,10,16,16.30
2014,10,19,10,17,16.30
2014,10,19,10,18,16.30
2014,10,19,10,19,16.30
2014,10,19,10,20,16.30
2014,10,19,10,21,16.30
2014,10,19,10,22,16.30
2014,10,19,10,23,16.30
2014,10,19,10,24,16.30
2014,10,19,10,25,16.30
2014,10,19,10,26,16.30
2014,10,19,10,27,16.30
2014,10,19,10,28,16.20
2014,10,19,10,29,16.20
2014,10,19,10,30,16.20
2014,10,19,10,31,16.20
2014,10,19,10,32,16.20
2014,10,19,10,33,16.20
2014,10,19,10,34,16.20
2014,10,19,10,35,16.20
2014,10,19,10,36,16.20
2014,10,19,10,37,16.20
2014,10,19,10,38,16.20
2014,10,19,10,39,16.30
2014,10,19,10,40,16.30
2014,10,19,10,41,16.30
2014,10,19,10,42,16.30
2014,10,19,10,43,16.40
2014,10,19,10,44,16.40
2014,10,19,10,45,16.40
2014,10,19,10,46,16.50
2014,10,19,10,47,16.50
2014,10,19,10,48,16.60
2014,10,19,10,49,16.60
2014,10,19,10,50,16.60
2014,10,19,10,51,16.60
2014,10,19,10,52,16.70
2014,10,19,10,53,16.70
2014,10,19,10,54,16.70
2014,10,19,10,55,16.70
2014,10,19,10,56,16.70
2014,10,19,10,57,16.70
2014,10,19,10,58,16.70
2014,10,19,10,59,16.70
2014,10,19,11,00,16.70
2014,10,19,11,01,16.70
2014,10,19,11,02,16.70
2014,10,19,11,03,16.70
2014,10,19,11,04,16.80
2014,10,19,11,05,16.80
2014,10,19,11,06,16.80
2014,10,19,11,07,16.90
2014,10,19,11,08,17.00
2014,10,19,11,09,17.00
2014,10,19,11,10,17.10
2014,10,19,11,11,17.20
2014,10,19,11,12,17.30
2014,10,19,11,13,17.40
2014,10,19,11,14,17.50
2014,10,19,11,15,17.50
2014,10,19,11,16,17.60
2014,10,19,11,17,17.70
2014,10,19,11,18,17.70
2014,10,19,11,19,17.80
2014,10,19,11,20,17.80
2014,10,19,11,21,17.90
2014,10,19,11,22,18.00
2014,10,19,11,23,18.00
2014,10,19,11,24,18.10
2014,10,19,11,25,18.20
2014,10,19,11,26,18.20
2014,10,19,11,27,18.30
2014,10,19,11,28,18.30
2014,10,19,11,29,18.40
2014,10,19,11,30,18.40
2014,10,19,11,31,18.40
2014,10,19,11,32,18.40
2014,10,19,11,33,18.40
2014,10,19,11,34,18.40
2014,10,19,11,35,18.30
2014,10,19,11,36,18.30
2014,10,19,11,37,18.20
2014,10,19,11,38,18.10
2014,10,19,11,39,18.00
2014,10,19,11,40,18.00
2014,10,19,11,41,17.90
2014,10,19,11,42,17.90
2014,10,19,11,43,17.80
2014,10,19,11,44,17.80
2014,10,19,11,45,17.70
2014,10,19,11,46,17.70
2014,10,19,11,47,17.60
2014,10,19,11,48,17.60
2014,10,19,11,49,17.60
2014,10,19,11,50,17.60
2014,10,19,11,51,17.60
2014,10,19,11,52,17.60
2014,10,19,11,53,17.50
2014,10,19,11,54,17.50
2014,10,19,11,55,17.40
2014,10,19,11,56,17.40
2014,10,19,11,57,17.40
2014,10,19,11,58,17.40
2014,10,19,11,59,17.40
2014,10,19,12,00,17.40
2014,10,19,12,01,17.40
2014,10,19,12,02,17.40
2014,10,19,12,03,17.50
2014,10,19,12,04,17.60
2014,10,19,12,05,17.60
2014,10,19,12,06,17.70
2014,10,19,12,07,17.70
2014,10,19,12,08,17.70
2014,10,19,12,09,17.80
2014,10,19,12,10,17.80
2014,10,19,12,11,17.90
2014,10,19,12,12,17.90
2014,10,19,12,13,17.90
2014,10,19,12,14,17.90
2014,10,19,12,15,17.90
2014,10,19,12,16,17.90
2014,10,19,12,17,18.00
2014,10,19,12,18,18.00
2014,10,19,12,19,18.00
2014,10,19,12,20,18.00
2014,10,19,12,21,18.10
2014,10,19,12,22,18.10
2014,10,19,12,23,18.10
2014,10,19,12,24,18.10
2014,10,19,12,25,18.20
2014,10,19,12,26,18.20
2014,10,19,12,27,18.20
2014,10,19,12,28,18.20
2014,10,19,12,29,18.20
2014,10,19,12,30,18.20
2014,10,19,12,31,18.20
2014,10,19,12,32,18.20
2014,10,19,12,33,18.20
2014,10,19,12,34,18.20
2014,10,19,12,35,18.20
2014,10,19,12,36,18.20
2014,10,19,12,37,18.20
2014,10,19,12,38,18.10
2014,10,19,12,39,18.10
2014,10,19,12,40,18.10
2014,10,19,12,41,18.10
2014,10,19,12,42,18.00
2014,10,19,12,43,18.00
2014,10,19,12,44,18.00
2014,10,19,12,45,18.00
2014,10,19,12,46,18.00
2014,10,19,12,47,17.90
2014,10,19,12,48,17.90
2014,10,19,12,49,18.00
2014,10,19,12,50,18.00
2014,10,19,12,51,18.00
2014,10,19,12,52,18.00
2014,10,19,12,53,18.00
2014,10,19,12,54,18.00
2014,10,19,12,55,18.00
2014,10,19,12,56,18.10
2014,10,19,12,57,18.10
2014,10,19,12,58,18.10
2014,10,19,12,59,18.10
2014,10,19,13,00,18.00
2014,10,19,13,01,18.00
2014,10,19,13,02,18.00
2014,10,19,13,03,18.00
2014,10,19,13,04,18.00
2014,10,19,13,05,18.00
2014,10,19,13,06,17.90
2014,10,19,13,07,17.90
2014,10,19,13,08,17.90
2014,10,19,13,09,17.90
2014,10,19,13,10,17.90
2014,10,19,13,11,17.90
2014,10,19,13,12,17.90
2014,10,19,13,13,17.90
2014,10,19,13,14,17.80
2014,10,19,13,15,17.80
2014,10,19,13,16,17.80
2014,10,19,13,17,17.80
2014,10,19,13,18,17.80
2014,10,19,13,19,17.80
2014,10,19,13,20,17.80
2014,10,19,13,21,17.80
2014,10,19,13,22,17.80
2014,10,19,13,23,17.70
2014,10,19,13,24,17.70
2014,10,19,13,25,17.70
2014,10,19,13,26,17.60
2014,10,19,13,27,17.50
2014,10,19,13,28,17.40
2014,10,19,13,29,17.20
2014,10,19,13,30,17.00
2014,10,19,13,31,16.80
2014,10,19,13,32,16.60
2014,10,19,13,33,16.40
2014,10,19,13,34,16.20
2014,10,19,13,35,16.10
2014,10,19,13,36,15.90
2014,10,19,13,37,15.80
2014,10,19,13,38,15.70
2014,10,19,13,39,15.60
2014,10,19,13,40,15.50
2014,10,19,13,41,15.40
2014,10,19,13,42,15.30
2014,10,19,13,43,15.20
2014,10,19,13,44,15.20
2014,10,19,13,45,15.10
2014,10,19,13,46,15.10
2014,10,19,13,47,15.00
2014,10,19,13,48,14.90
2014,10,19,13,49,14.90
2014,10,19,13,50,14.90
2014,10,19,13,51,14.80
2014,10,19,13,52,14.80
2014,10,19,13,53,14.80
2014,10,19,13,54,14.80
2014,10,19,13,55,14.80
2014,10,19,13,56,14.80
2014,10,19,13,57,14.80
2014,10,19,13,58,14.80
2014,10,19,13,59,14.80
2014,10,19,14,00,14.80
2014,10,19,14,01,14.70
2014,10,19,14,02,14.70
2014,10,19,14,03,14.70
2014,10,19,14,04,14.70
2014,10,19,14,05,14.60
2014,10,19,14,06,14.60
2014,10,19,14,07,14.60
2014,10,19,14,08,14.60
2014,10,19,14,09,14.50
2014,10,19,14,10,14.50
2014,10,19,14,11,14.60
2014,10,19,14,12,14.50
2014,10,19,14,13,14.50
2014,10,19,14,14,14.50
2014,10,19,14,15,14.50
2014,10,19,14,16,14.50
2014,10,19,14,17,14.50
2014,10,19,14,18,14.50
2014,10,19,14,19,14.40
2014,10,19,14,20,14.40
2014,10,19,14,21,14.40
2014,10,19,14,22,14.40
2014,10,19,14,23,14.40
2014,10,19,14,24,14.30
2014,10,19,14,25,14.30
2014,10,19,14,26,14.30
2014,10,19,14,27,14.30
2014,10,19,14,28,14.30
2014,10,19,14,29,14.30
2014,10,19,14,30,14.30
2014,10,19,14,31,14.20
2014,10,19,14,32,14.20
2014,10,19,14,33,14.20
2014,10,19,14,34,14.20
2014,10,19,14,35,14.20
2014,10,19,14,36,14.20
2014,10,19,14,37,14.20
2014,10,19,14,38,14.30
2014,10,19,14,39,14.30
2014,10,19,14,40,14.30
2014,10,19,14,41,14.30
2014,10,19,14,42,14.30
2014,10,19,14,43,14.30
2014,10,19,14,44,14.30
2014,10,19,14,45,14.30
2014,10,19,14,46,14.30
2014,10,19,14,47,14.30
2014,10,19,14,48,14.30
2014,10,19,14,49,14.30
2014,10,19,14,50,14.30
2014,10,19,14,51,14.30
2014,10,19,14,52,14.30
2014,10,19,14,53,14.30
2014,10,19,14,54,14.30
2014,10,19,14,55,14.30
2014,10,19,14,56,14.30
2014,10,19,14,57,14.30
2014,10,19,14,58,14.30
2014,10,19,14,59,14.30
2014,10,19,15,00,14.30
2014,10,19,15,01,14.30
2014,10,19,15,02,14.30
2014,10,19,15,03,14.30
2014,10,19,15,04,14.30
2014,10,19,15,05,14.30
2014,10,19,15,06,14.30
2014,10,19,15,07,14.30
2014,10,19,15,08,14.30
2014,10,19,15,09,14.30
2014,10,19,15,10,14.30
2014,10,19,15,11,14.30
2014,10,19,15,12,14.30
2014,10,19,15,13,14.30
2014,10,19,15,14,14.30
2014,10,19,15,15,14.30
2014,10,19,15,16,14.20
2014,10,19,15,17,14.20
2014,10,19,15,18,14.20
2014,10,19,15,19,14.20
2014,10,19,15,20,14.20
2014,10,19,15,21,14.20
2014,10,19,15,22,14.20
2014,10,19,15,23,14.20
2014,10,19,15,24,14.20
2014,10,19,15,25,14.20
2014,10,19,15,26,14.20
2014,10,19,15,27,14.20
2014,10,19,15,28,14.10
2014,10,19,15,29,14.10
2014,10,19,15,30,14.10
2014,10,19,15,31,14.10
2014,10,19,15,32,14.10
2014,10,19,15,33,14.10
2014,10,19,15,34,14.00
2014,10,19,15,35,14.00
2014,10,19,15,36,14.00
2014,10,19,15,37,13.90
2014,10,19,15,38,13.90
2014,10,19,15,39,13.90
2014,10,19,15,40,13.80
2014,10,19,15,41,13.80
2014,10,19,15,42,13.80
2014,10,19,15,43,13.80
2014,10,19,15,44,13.70
2014,10,19,15,45,13.70
2014,10,19,15,46,13.70
2014,10,19,15,47,13.70
2014,10,19,15,48,13.70
2014,10,19,15,49,13.70
2014,10,19,15,50,13.70
2014,10,19,15,51,13.70
2014,10,19,15,52,13.70
2014,10,19,15,53,13.60
2014,10,19,15,54,13.60
2014,10,19,15,55,13.60
2014,10,19,15,56,13.60
2014,10,19,15,57,13.60
2014,10,19,15,58,13.60
2014,10,19,15,59,13.60
2014,10,19,16,00,13.60
2014,10,19,16,01,13.60
2014,10,19,16,02,13.60
2014,10,19,16,03,13.60
2014,10,19,16,04,13.60
2014,10,19,16,05,13.60
2014,10,19,16,06,13.60
2014,10,19,16,07,13.60
2014,10,19,16,08,13.60
2014,10,19,16,09,13.60
2014,10,19,16,10,13.60
2014,10,19,16,11,13.60
2014,10,19,16,12,13.60
2014,10,19,16,13,13.60
2014,10,19,16,14,13.60
2014,10,19,16,15,13.60
2014,10,19,16,16,13.60
2014,10,19,16,17,13.60
2014,10,19,16,18,13.60
2014,10,19,16,19,13.60
2014,10,19,16,20,13.60
2014,10,19,16,21,13.60
2014,10,19,16,22,13.60
2014,10,19,16,23,13.60
2014,10,19,16,24,13.60
2014,10,19,16,25,13.60
2014,10,19,16,26,13.60
2014,10,19,16,27,13.60
2014,10,19,16,28,13.60
2014,10,19,16,29,13.60
2014,10,19,16,30,13.60
2014,10,19,16,31,13.60
2014,10,19,16,32,13.70
2014,10,19,16,33,13.60
2014,10,19,16,34,13.60
2014,10,19,16,35,13.70
2014,10,19,16,36,13.70
2014,10,19,16,37,13.70
2014,10,19,16,38,13.70
2014,10,19,16,39,13.70
2014,10,19,16,40,13.70
2014,10,19,16,41,13.70
2014,10,19,16,42,13.70
2014,10,19,16,43,13.70
2014,10,19,16,44,13.70
2014,10,19,16,45,13.70
2014,10,19,16,46,13.70
2014,10,19,16,47,13.70
2014,10,19,16,48,13.70
2014,10,19,16,49,13.70
2014,10,19,16,50,13.70
2014,10,19,16,51,13.70
2014,10,19,16,52,13.70
2014,10,19,16,53,13.70
2014,10,19,16,54,13.70
2014,10,19,16,55,13.60
2014,10,19,16,56,13.60
2014,10,19,16,57,13.60
2014,10,19,16,58,13.60
2014,10,19,16,59,13.60
2014,10,19,17,00,13.60
2014,10,19,17,01,13.50
2014,10,19,17,02,13.50
2014,10,19,17,03,13.50
2014,10,19,17,04,13.50
2014,10,19,17,05,13.50
2014,10,19,17,06,13.40
2014,10,19,17,07,13.40
2014,10,19,17,08,13.40
2014,10,19,17,09,13.40
2014,10,19,17,10,13.40
2014,10,19,17,11,13.40
2014,10,19,17,12,13.40
2014,10,19,17,13,13.40
2014,10,19,17,14,13.40
2014,10,19,17,15,13.40
2014,10,19,17,16,13.40
2014,10,19,17,17,13.40
2014,10,19,17,18,13.40
2014,10,19,17,19,13.40